This is the latest recevied weather packets stored in our database for station/object N7WSS. If no packets are shown the sender has not sent any weather packets the latest 10 day(s).
| Time | Temp. | Humidity | Pressure | Rain* | Wind** | Luminosity | Snow |
|---|---|---|---|---|---|---|---|
| 1787876744 | 36.67° C | 25% | 1011.1 hPa | 0 mm | - | - | - |
| 1787876439 | 36.67° C | 25% | 1010.7 hPa | 0 mm | - | - | - |
| 1787876138 | 37.22° C | 26% | 1010.6 hPa | 0 mm | - | - | - |
| 1787875833 | 36.67° C | 27% | 1010.7 hPa | 0 mm | - | - | - |
| 1787875532 | 39.44° C | 26% | 1010.9 hPa | 0 mm | - | - | - |
| 1787875233 | 39.44° C | 22% | 1010.8 hPa | 0 mm | - | - | - |
| 1787874931 | 40° C | 24% | 1010.7 hPa | 0 mm | - | - | - |
| 1787874627 | 40.56° C | 22% | 1010.7 hPa | 0 mm | - | - | - |
| 1787874326 | 40.56° C | 24% | 1010.8 hPa | 0 mm | - | - | - |
| 1787874025 | 39.44° C | 24% | 1010.7 hPa | 0 mm | - | - | - |
| 1787873725 | 40° C | 25% | 1010.7 hPa | 0 mm | - | - | - |
| 1787873420 | 40° C | 25% | 1010.9 hPa | 0 mm | - | - | - |
| 1787873115 | 41.67° C | 24% | 1010.9 hPa | 0 mm | - | - | - |
| 1787872814 | 42.22° C | 23% | 1010.7 hPa | 0 mm | - | - | - |
| 1787872510 | 42.78° C | 23% | 1010.7 hPa | 0 mm | - | - | - |
| 1787872205 | 42.78° C | 23% | 1010.7 hPa | 0 mm | - | - | - |
| 1787871904 | 42.22° C | 23% | 1010.7 hPa | 0 mm | - | - | - |
| 1787871599 | 41.67° C | 23% | 1010.4 hPa | 0 mm | - | - | - |
| 1787871295 | 41.11° C | 23% | 1010.3 hPa | 0 mm | - | - | - |
| 1787870990 | 41.11° C | 24% | 1010.4 hPa | 0 mm | - | - | - |
| 1787870689 | 41.67° C | 24% | 1010.4 hPa | 0 mm | - | - | - |
| 1787870389 | 41.67° C | 24% | 1010.5 hPa | 0 mm | - | - | - |
| 1787870085 | 41.67° C | 24% | 1010.6 hPa | 0 mm | - | - | - |
| 1787869783 | 41.67° C | 24% | 1010.8 hPa | 0 mm | - | - | - |
| 1787869479 | 41.67° C | 24% | 1010.9 hPa | 0 mm | - | - | - |
* Rain latest hour (hover to see other rain measurements)
** Current wind speed in m/s (hover to see current wind gust speed)